Location: Novokuznetsk
(53.7500°N, 87.1000°E)
Time: 22:12:32
(UTC+06:00)

ISS - Pass Details

Date: 19 May 2021
Orbit: 417 x 422 km, 51.6° (Epoch: 16 June)

Event Time Altitude Azimuth Distance (km) Brightness Sun altitude
Rises 21:27:35 0° 248° (WSW) 2,361 0.3 -8.7°
Reaches altitude 10° 21:29:42 10° 243° (WSW) 1,500 -0.8 -8.8°
Maximum altitude 21:32:58 50° 167° (SSE) 547 -3.6 -9.1°
Drops below altitude 10° 21:36:15 10° 91° (E) 1,506 -1.3 -9.4°
Sets 21:38:23 0° 86° (E) 2,372 -0.2 -9.6°
